TimeEST,TemperatureF,Dew PointF,Humidity,Sea Level PressureIn,VisibilityMPH,Wind Direction,Wind SpeedMPH,Gust SpeedMPH,PrecipitationIn,Events,Conditions,WindDirDegrees,DateUTC
12:15 AM,30.2,26.6,86,30.44,9.0,Calm,Calm,-,N/A,,Clear,0,2012-11-14 05:15:00
12:35 AM,28.4,26.6,93,30.44,9.0,SSW,4.6,-,N/A,,Clear,210,2012-11-14 05:35:00
12:55 AM,28.4,26.6,93,30.45,6.0,Calm,Calm,-,N/A,,Clear,0,2012-11-14 05:55:00
1:15 AM,28.4,26.6,93,30.45,10.0,Calm,Calm,-,N/A,,Clear,0,2012-11-14 06:15:00
1:35 AM,28.4,26.6,93,30.45,7.0,Calm,Calm,-,N/A,,Clear,0,2012-11-14 06:35:00
1:55 AM,28.4,26.6,93,30.46,10.0,Calm,Calm,-,N/A,,Clear,0,2012-11-14 06:55:00
2:15 AM,28.4,24.8,86,30.46,10.0,Calm,Calm,-,N/A,,Clear,0,2012-11-14 07:15:00
2:35 AM,28.4,26.6,93,30.46,8.0,Calm,Calm,-,N/A,,Clear,0,2012-11-14 07:35:00
2:55 AM,26.6,24.8,93,30.47,10.0,Calm,Calm,-,N/A,,Clear,0,2012-11-14 07:55:00
3:15 AM,26.6,24.8,93,30.47,10.0,South,3.5,-,N/A,,Clear,190,2012-11-14 08:15:00
3:35 AM,26.6,24.8,93,30.48,10.0,Calm,Calm,-,N/A,,Clear,0,2012-11-14 08:35:00
3:55 AM,26.6,24.8,93,30.48,10.0,Calm,Calm,-,N/A,,Clear,0,2012-11-14 08:55:00
4:15 AM,26.6,24.8,93,30.48,10.0,Calm,Calm,-,N/A,,Clear,0,2012-11-14 09:15:00
4:35 AM,26.6,24.8,93,30.49,10.0,Calm,Calm,-,N/A,,Clear,0,2012-11-14 09:35:00
4:55 AM,24.8,23.0,93,30.49,10.0,Calm,Calm,-,N/A,,Scattered Clouds,0,2012-11-14 09:55:00
5:15 AM,26.6,23.0,86,30.50,10.0,Calm,Calm,-,N/A,,Mostly Cloudy,0,2012-11-14 10:15:00
5:35 AM,26.6,24.8,93,30.51,10.0,Calm,Calm,-,N/A,,Overcast,0,2012-11-14 10:35:00
5:55 AM,28.4,24.8,86,30.52,10.0,Calm,Calm,-,N/A,,Overcast,0,2012-11-14 10:55:00
6:15 AM,28.4,24.8,86,30.52,10.0,Calm,Calm,-,N/A,,Overcast,0,2012-11-14 11:15:00
6:35 AM,28.4,24.8,86,30.53,10.0,Calm,Calm,-,N/A,,Overcast,0,2012-11-14 11:35:00
6:55 AM,28.4,26.6,93,30.54,10.0,Calm,Calm,-,N/A,,Overcast,0,2012-11-14 11:55:00
7:15 AM,28.4,26.6,93,30.54,10.0,Calm,Calm,-,N/A,,Overcast,0,2012-11-14 12:15:00
7:35 AM,30.2,26.6,86,30.55,10.0,Calm,Calm,-,N/A,,Overcast,0,2012-11-14 12:35:00
7:55 AM,30.2,26.6,86,30.55,10.0,North,3.5,-,N/A,,Overcast,350,2012-11-14 12:55:00
8:15 AM,32.0,26.6,80,30.56,10.0,North,4.6,-,N/A,,Overcast,10,2012-11-14 13:15:00
8:35 AM,32.0,26.6,80,30.56,10.0,North,3.5,-,N/A,,Mostly Cloudy,360,2012-11-14 13:35:00
8:55 AM,33.8,26.6,75,30.56,10.0,North,6.9,-,N/A,,Partly Cloudy,350,2012-11-14 13:55:00
9:15 AM,35.6,26.6,70,30.56,10.0,North,6.9,-,N/A,,Clear,350,2012-11-14 14:15:00
9:35 AM,35.6,24.8,65,30.56,10.0,North,4.6,-,N/A,,Clear,10,2012-11-14 14:35:00
9:55 AM,37.4,24.8,60,30.56,10.0,North,6.9,-,N/A,,Clear,360,2012-11-14 14:55:00
10:35 AM,39.2,23.0,52,30.55,10.0,NNW,4.6,-,N/A,,Clear,330,2012-11-14 15:35:00
10:55 AM,39.2,23.0,52,30.54,10.0,WNW,5.8,-,N/A,,Clear,300,2012-11-14 15:55:00
11:15 AM,39.2,24.8,56,30.53,10.0,NNW,4.6,-,N/A,,Clear,340,2012-11-14 16:15:00
11:35 AM,41.0,23.0,49,30.52,10.0,West,5.8,-,N/A,,Clear,280,2012-11-14 16:35:00
11:55 AM,42.8,23.0,46,30.51,10.0,NNW,6.9,-,N/A,,Clear,340,2012-11-14 16:55:00
12:15 PM,42.8,23.0,46,30.51,10.0,NNW,6.9,-,N/A,,Clear,340,2012-11-14 17:15:00
12:35 PM,42.8,23.0,46,30.50,10.0,NNW,9.2,-,N/A,,Clear,340,2012-11-14 17:35:00
12:55 PM,42.8,23.0,46,30.50,10.0,NW,6.9,-,N/A,,Clear,320,2012-11-14 17:55:00
1:15 PM,44.6,21.2,39,30.49,10.0,North,10.4,-,N/A,,Clear,350,2012-11-14 18:15:00
1:35 PM,44.6,21.2,39,30.48,10.0,NNW,10.4,-,N/A,,Clear,340,2012-11-14 18:35:00
1:55 PM,44.6,21.2,39,30.48,10.0,NNW,10.4,17.3,N/A,,Clear,340,2012-11-14 18:55:00
2:15 PM,44.6,21.2,39,30.48,10.0,NNW,8.1,-,N/A,,Clear,340,2012-11-14 19:15:00
2:35 PM,44.6,21.2,39,30.48,10.0,NW,6.9,-,N/A,,Clear,320,2012-11-14 19:35:00
2:55 PM,42.8,19.4,39,30.49,10.0,NW,10.4,-,N/A,,Clear,320,2012-11-14 19:55:00
3:15 PM,42.8,21.2,42,30.48,10.0,NNW,11.5,-,N/A,,Clear,340,2012-11-14 20:15:00
3:35 PM,42.8,21.2,42,30.48,10.0,NNW,10.4,-,N/A,,Clear,340,2012-11-14 20:35:00
3:55 PM,42.8,21.2,42,30.49,10.0,NNW,9.2,-,N/A,,Clear,340,2012-11-14 20:55:00
4:15 PM,41.0,19.4,42,30.50,10.0,North,11.5,-,N/A,,Clear,350,2012-11-14 21:15:00
4:35 PM,39.2,21.2,49,30.50,10.0,North,6.9,-,N/A,,Clear,350,2012-11-14 21:35:00
4:55 PM,39.2,21.2,49,30.50,10.0,North,4.6,-,N/A,,Clear,350,2012-11-14 21:55:00
5:15 PM,35.6,21.2,56,30.50,10.0,Calm,Calm,-,N/A,,Clear,0,2012-11-14 22:15:00
5:35 PM,33.8,21.2,60,30.51,10.0,Calm,Calm,-,N/A,,Clear,0,2012-11-14 22:35:00
5:55 PM,32.0,24.8,75,30.51,10.0,Calm,Calm,-,N/A,,Clear,0,2012-11-14 22:55:00
6:15 PM,30.2,24.8,80,30.51,10.0,Calm,Calm,-,N/A,,Clear,0,2012-11-14 23:15:00
6:35 PM,30.2,23.0,75,30.51,10.0,Calm,Calm,-,N/A,,Clear,0,2012-11-14 23:35:00
6:55 PM,28.4,23.0,80,30.51,10.0,Calm,Calm,-,N/A,,Clear,0,2012-11-14 23:55:00
7:15 PM,28.4,24.8,86,30.51,10.0,South,3.5,-,N/A,,Clear,190,2012-11-15 00:15:00
7:35 PM,28.4,24.8,86,30.51,10.0,Calm,Calm,-,N/A,,Clear,0,2012-11-15 00:35:00
7:55 PM,28.4,23.0,80,30.52,10.0,South,3.5,-,N/A,,Clear,190,2012-11-15 00:55:00
8:15 PM,26.6,24.8,93,30.52,10.0,Calm,Calm,-,N/A,,Clear,0,2012-11-15 01:15:00
8:35 PM,26.6,24.8,93,30.51,10.0,Calm,Calm,-,N/A,,Clear,0,2012-11-15 01:35:00
8:55 PM,26.6,24.8,93,30.51,10.0,Calm,Calm,-,N/A,,Clear,0,2012-11-15 01:55:00
9:15 PM,26.6,23.0,86,30.51,10.0,Calm,Calm,-,N/A,,Clear,0,2012-11-15 02:15:00
9:35 PM,26.6,21.2,80,30.51,10.0,Calm,Calm,-,N/A,,Clear,0,2012-11-15 02:35:00
9:55 PM,26.6,23.0,86,30.51,10.0,Calm,Calm,-,N/A,,Clear,0,2012-11-15 02:55:00
10:15 PM,26.6,21.2,80,30.51,10.0,Calm,Calm,-,N/A,,Clear,0,2012-11-15 03:15:00
10:35 PM,26.6,23.0,86,30.51,10.0,Calm,Calm,-,N/A,,Clear,0,2012-11-15 03:35:00
10:55 PM,24.8,21.2,86,30.51,10.0,SSW,3.5,-,N/A,,Clear,200,2012-11-15 03:55:00
11:15 PM,24.8,21.2,86,30.51,10.0,Calm,Calm,-,N/A,,Clear,0,2012-11-15 04:15:00
11:35 PM,24.8,21.2,86,30.50,10.0,Calm,Calm,-,N/A,,Clear,0,2012-11-15 04:35:00
11:55 PM,24.8,21.2,86,30.49,10.0,Calm,Calm,-,N/A,,Clear,0,2012-11-15 04:55:00